Temp
-24 -23 -24 -24 -22 -21 -22 -20 -21 -17 -18 -18 -19 -21 -19 -18 -18 -18 -19 -18 -18 -18 -18 -19 -18 -18 -18 -18 -18 -17 -17 -16 -15 -15 -15 -15 -14 -14 -13 -13 -12 -12 -13 -14
-29 -26 -27 -24 -24 -22 -21 -21 -20 -19 -19 -18 -18 -20 -20 -19 -19 -19 -19 -20 -19 -18 -19 -19 -19 -18 -18 -18 -18 -18 -17 -16 -17 -16 -16 -16 -15 -14 -13 -14 -13 -14 -13 -14
-30 -29 -29 -27 -22 -23 -22 -21 -20 -20 -19 -20 -20 -21 -21 -20 -20 -19 -19 -20 -19 -19 -19 -19 -19 -19 -19 -19 -18 -18 -18 -17 -16 -17 -17 -16 -17 -16 -14 -16 -14 -13 -14 -14
-31 -31 -30 -27 -27 -26 -25 -22 -22 -20 -20 -20 -20 -22 -22 -21 -21 -21 -20 -20 -20 -20 -20 -19 -19 -18 -19 -19 -18 -18 -18 -18 -18 -17 -17 -17 -17 -16 -16 -16 -17 -16 -15 -14
-32 -32 -31 -29 -28 -28 -28 -24 -24 -22 -21 -20 -20 -22 -22 -22 -22 -21 -21 -21 -21 -20 -20 -20 -19 -19 -19 -19 -18 -18 -18 -18 -19 -18 -17 -17 -17 -17 -17 -16 -16 -16 -16 -15
-32 -32 -30 -28 -28 -28 -28 -26 -25 -23 -21 -21 -22 -22 -22 -22 -22 -21 -21 -21 -21 -21 -20 -20 -20 -19 -19 -19 -18 -18 -18 -18 -18 -18 -18 -18 -17 -17 -17 -17 -17 -17 -16 -16
-31 -31 -30 -30 -30 -28 -29 -26 -26 -26 -24 -24 -23 -23 -23 -23 -22 -22 -22 -22 -22 -21 -21 -20 -20 -20 -19 -19 -19 -18 -18 -18 -18 -18 -18 -18 -18 -18 -18 -17 -17 -17 -17 -17
-31 -31 -29 -29 -29 -30 -28 -27 -27 -26 -25 -25 -24 -24 -24 -24 -23 -23 -22 -22 -22 -21 -21 -21 -20 -20 -19 -19 -19 -19 -18 -18 -18 -18 -18 -18 -18 -18 -18 -17 -17 -17 -17 -18
-30 -29 -29 -28 -29 -29 -28 -27 -26 -26 -25 -25 -25 -25 -25 -25 -24 -23 -23 -23 -22 -21 -21 -21 -20 -20 -19 -19 -19 -19 -18 -18 -18 -18 -19 -19 -19 -18 -18 -18 -18 -18 -18 -18
-29 -29 -28 -27 -28 -28 -26 -25 -25 -25 -25 -25 -25 -25 -25 -25 -25 -25 -24 -24 -23 -22 -22 -21 -21 -21 -20 -20 -19 -19 -19 -19 -19 -19 -19 -20 -20 -20 -19 -19 -18 -18 -18 -18
-29 -28 -27 -27 -27 -26 -27 -26 -26 -25 -25 -25 -25 -25 -25 -25 -25 -25 -24 -24 -23 -23 -22 -21 -21 -21 -21 -20 -20 -20 -20 -20 -19 -19 -19 -20 -20 -20 -20 -20 -20 -19 -19 -19
-28 -27 -27 -27 -27 -27 -27 -26 -26 -25 -26 -25 -25 -25 -25 -25 -25 -25 -25 -25 -24 -23 -23 -23 -23 -22 -22 -22 -22 -21 -21 -21 -21 -21 -20 -20 -20 -21 -20 -21 -21 -21 -20 -20
-27 -28 -27 -26 -27 -27 -26 -26 -26 -26 -25 -25 -25 -26 -26 -25 -25 -26 -25 -25 -25 -25 -25 -25 -24 -24 -23 -23 -23 -22 -22 -22 -21 -21 -21 -22 -22 -21 -21 -21 -21 -21 -20 -20
-28 -28 -28 -27 -26 -26 -25 -26 -26 -26 -26 -26 -26 -26 -26 -25 -26 -25 -25 -25 -25 -25 -25 -25 -25 -24 -24 -23 -24 -24 -24 -23 -23 -22 -22 -22 -22 -22 -22 -22 -21 -21 -21 -20
-29 -29 -28 -27 -27 -26 -26 -26 -26 -26 -26 -26 -26 -26 -25 -25 -25 -26 -26 -25 -25 -25 -25 -25 -25 -25 -24 -24 -24 -23 -23 -23 -23 -23 -23 -23 -23 -22 -22 -22 -22 -22 -21 -21
-29 -28 -28 -27 -27 -27 -26 -26 -26 -26 -26 -26 -26 -26 -26 -26 -26 -26 -26 -26 -25 -25 -25 -25 -25 -25 -25 -25 -24 -24 -24 -24 -23 -23 -23 -23 -23 -23 -22 -22 -22 -22 -22 -22
-30 -30 -29 -28 -28 -27 -27 -27 -27 -27 -26 -26 -26 -26 -26 -26 -26 -26 -26 -26 -26 -26 -26 -26 -26 -25 -25 -25 -25 -25 -25 -24 -24 -24 -24 -24 -24 -23 -23 -23 -23 -23 -23 -23
-30 -29 -29 -29 -29 -28 -28 -28 -28 -27 -27 -27 -27 -27 -27 -27 -26 -26 -26 -26 -26 -26 -26 -26 -26 -26 -26 -25 -25 -25 -25 -25 -25 -25 -25 -24 -24 -24 -24 -24 -24 -24 -24 -24
-30 -30 -29 -29 -29 -29 -29 -28 -28 -28 -28 -28 -28 -27 -27 -27 -27 -27 -27 -27 -27 -27 -27 -26 -26 -26 -26 -26 -26 -26 -26 -26 -25 -25 -25 -25 -25 -25 -25 -25 -25 -25 -25 -25
-30 -30 -30 -30 -29 -29 -29 -29 -29 -28 -28 -28 -28 -28 -28 -28 -28 -28 -28 -28 -28 -27 -27 -27 -27 -27 -27 -27 -26 -26 -26 -26 -26 -26 -26 -26 -26 -26 -26 -26 -25 -25 -25 -25
-31 -30 -30 -30 -30 -30 -30 -30 -29 -29 -29 -29 -29 -29 -29 -29 -29 -29 -29 -29 -29 -28 -28 -28 -28 -28 -28 -28 -27 -27 -27 -27 -27 -26 -26 -26 -26 -26 -26 -25 -25 -25 -25 -25
-31 -31 -31 -31 -30 -30 -30 -30 -30 -30 -30 -30 -30 -30 -30 -30 -30 -29 -29 -29 -29 -29 -29 -29 -29 -29 -28 -28 -28 -28 -28 -28 -27 -27 -27 -27 -26 -26 -26 -26 -26 -26 -26 -26
-32 -32 -32 -31 -31 -31 -31 -31 -31 -31 -30 -30 -30 -30 -30 -30 -30 -30 -30 -29 -29 -29 -29 -29 -29 -29 -29 -29 -29 -29 -28 -28 -28 -28 -28 -28 -27 -27 -27 -27 -26 -26 -26 -26
-33 -32 -32 -32 -32 -32 -32 -32 -32 -31 -31 -31 -31 -31 -31 -31 -31 -30 -31 -30 -30 -30 -30 -29 -29 -29 -29 -29 -29 -29 -28 -28 -28 -28 -28 -28 -28 -28 -28 -28 -28 -28 -28 -28
-34 -33 -33 -33 -33 -33 -32 -32 -32 -32 -32 -32 -32 -32 -31 -31 -31 -32 -31 -31 -31 -31 -31 -31 -31 -31 -31 -30 -30 -30 -30 -30 -30 -30 -30 -30 -30 -30 -30 -30 -30 -30 -31 -31
-35 -34 -34 -34 -34 -33 -33 -33 -33 -33 -33 -33 -32 -32 -32 -32 -32 -32 -32 -32 -32 -32 -32 -32 -32 -32 -32 -32 -32 -31 -31 -31 -31 -32 -32 -32 -32 -32 -32 -32 -32 -32 -32 -32
-35 -35 -35 -35 -34 -34 -34 -34 -34 -34 -34 -34 -34 -34 -34 -34 -34 -34 -34 -33 -33 -33 -33 -34 -34 -34 -34 -34 -34 -34 -34 -34 -34 -34 -34 -33 -33 -33 -33 -33 -33 -32 -32 -32
Height
5482 5491 5500 5503 5512 5520 5523 5532 5534 5556 5553 5563 5567 5571 5574 5575 5577 5581 5586 5588 5588 5589 5590 5592 5594 5596 5598 5600 5603 5605 5610 5616 5623 5628 5634 5641 5648 5654 5661 5665 5671 5675 5681 5685
5453 5468 5470 5474 5485 5496 5505 5513 5519 5530 5534 5545 5551 5555 5562 5563 5565 5569 5576 5579 5582 5584 5583 5584 5586 5588 5591 5594 5595 5598 5602 5608 5611 5616 5622 5628 5634 5639 5647 5649 5655 5662 5667 5671
5427 5447 5449 5442 5467 5476 5483 5492 5503 5508 5530 5531 5540 5541 5548 5550 5553 5558 5564 5568 5572 5575 5577 5577 5578 5579 5581 5583 5586 5589 5593 5597 5602 5607 5610 5615 5620 5626 5630 5638 5641 5650 5651 5656
5414 5421 5409 5424 5448 5454 5458 5472 5484 5495 5506 5514 5524 5531 5535 5537 5541 5546 5552 5556 5560 5564 5568 5570 5570 5571 5573 5575 5577 5579 5583 5587 5591 5597 5601 5604 5608 5613 5618 5623 5628 5632 5637 5639
5406 5403 5401 5407 5424 5434 5441 5453 5466 5476 5488 5498 5507 5515 5521 5527 5531 5536 5541 5545 5548 5553 5557 5560 5562 5563 5564 5566 5568 5570 5573 5576 5579 5584 5589 5592 5596 5600 5603 5607 5613 5617 5620 5621
5400 5393 5389 5399 5407 5421 5436 5425 5452 5462 5474 5485 5494 5496 5511 5515 5521 5525 5530 5533 5536 5540 5545 5548 5551 5554 5556 5558 5561 5562 5564 5566 5570 5574 5579 5582 5584 5587 5591 5594 5597 5601 5604 5605
5393 5388 5385 5388 5391 5400 5407 5425 5449 5459 5466 5473 5479 5489 5494 5499 5508 5512 5516 5520 5525 5528 5532 5536 5540 5543 5546 5548 5551 5554 5556 5557 5560 5564 5568 5572 5575 5577 5579 5583 5586 5589 5593 5594
5388 5385 5383 5385 5388 5388 5406 5427 5440 5448 5455 5459 5466 5473 5481 5488 5495 5500 5505 5509 5513 5518 5521 5524 5528 5531 5535 5538 5540 5543 5546 5550 5551 5553 5556 5560 5562 5565 5568 5570 5574 5577 5579 5581
5384 5383 5380 5378 5379 5380 5394 5415 5427 5439 5446 5452 5459 5465 5472 5478 5484 5489 5494 5498 5502 5506 5510 5513 5516 5519 5523 5526 5529 5532 5535 5538 5541 5543 5546 5549 5552 5554 5557 5559 5562 5565 5566 5567
5382 5378 5375 5374 5376 5380 5394 5411 5426 5435 5442 5448 5455 5462 5468 5473 5477 5480 5484 5488 5491 5495 5499 5503 5505 5508 5512 5515 5517 5520 5523 5526 5529 5532 5534 5537 5540 5543 5545 5547 5550 5552 5555 5556
5383 5380 5379 5377 5382 5388 5400 5409 5421 5430 5439 5446 5451 5456 5461 5466 5470 5473 5476 5478 5482 5485 5488 5491 5495 5498 5501 5505 5508 5511 5513 5516 5518 5520 5522 5525 5529 5531 5534 5537 5539 5541 5543 5546
5384 5384 5385 5387 5390 5400 5408 5414 5422 5429 5435 5440 5445 5449 5454 5458 5461 5464 5466 5469 5472 5474 5477 5480 5484 5488 5491 5495 5499 5502 5505 5508 5510 5511 5514 5516 5518 5521 5523 5525 5527 5529 5531 5533
5387 5388 5391 5398 5401 5406 5411 5418 5426 5431 5436 5438 5442 5445 5449 5452 5454 5458 5461 5464 5466 5468 5472 5473 5475 5478 5482 5484 5487 5491 5495 5498 5501 5502 5503 5504 5506 5508 5510 5513 5514 5517 5519 5520
5392 5394 5398 5401 5406 5410 5416 5421 5425 5429 5433 5436 5439 5443 5446 5449 5451 5454 5457 5460 5463 5465 5466 5468 5469 5471 5472 5473 5475 5478 5481 5484 5487 5490 5491 5493 5494 5496 5498 5500 5502 5504 5506 5508
5399 5401 5404 5404 5407 5411 5414 5418 5421 5426 5430 5433 5437 5440 5443 5445 5448 5451 5453 5455 5458 5460 5461 5463 5464 5466 5467 5469 5470 5471 5473 5474 5476 5478 5480 5482 5484 5485 5487 5489 5491 5492 5494 5495
5406 5407 5407 5409 5410 5412 5415 5418 5422 5425 5428 5431 5434 5437 5440 5442 5444 5447 5449 5451 5453 5454 5455 5456 5457 5458 5459 5461 5462 5464 5465 5466 5467 5468 5470 5471 5472 5473 5475 5476 5478 5479 5480 5482
5409 5411 5412 5413 5413 5415 5417 5419 5421 5424 5427 5429 5432 5434 5436 5438 5440 5442 5444 5445 5446 5448 5449 5450 5450 5451 5452 5453 5454 5455 5456 5457 5458 5459 5460 5460 5461 5462 5463 5464 5465 5466 5467 5467
5414 5414 5415 5415 5416 5416 5417 5418 5420 5422 5424 5426 5428 5430 5432 5433 5435 5436 5437 5439 5440 5440 5441 5442 5443 5443 5444 5444 5445 5446 5446 5447 5448 5448 5449 5450 5451 5451 5452 5452 5452 5453 5453 5454
5415 5415 5415 5415 5415 5416 5417 5417 5418 5420 5422 5423 5424 5425 5427 5428 5429 5430 5431 5431 5432 5433 5433 5433 5434 5434 5435 5435 5436 5436 5436 5437 5437 5438 5438 5439 5439 5440 5441 5441 5441 5441 5442 5442
5414 5414 5414 5414 5414 5415 5415 5415 5416 5417 5418 5419 5419 5420 5420 5421 5422 5422 5423 5423 5424 5424 5424 5424 5424 5424 5424 5424 5425 5425 5426 5426 5426 5427 5427 5428 5428 5428 5428 5429 5428 5428 5428 5428
5412 5411 5411 5411 5411 5411 5412 5412 5412 5412 5412 5412 5412 5413 5413 5413 5413 5413 5414 5414 5413 5413 5413 5414 5413 5413 5414 5413 5413 5413 5414 5414 5414 5414 5414 5414 5413 5413 5413 5412 5412 5412 5411 5411
5407 5407 5406 5406 5405 5405 5405 5405 5405 5405 5404 5404 5404 5404 5404 5403 5403 5403 5402 5402 5402 5402 5402 5402 5401 5401 5400 5400 5400 5399 5399 5399 5398 5398 5398 5398 5397 5396 5395 5394 5393 5392 5391 5390
5402 5402 5401 5400 5399 5398 5397 5396 5396 5395 5395 5394 5394 5394 5393 5392 5392 5391 5390 5390 5389 5388 5387 5386 5386 5385 5384 5384 5383 5383 5382 5381 5381 5380 5380 5379 5378 5376 5375 5375 5374 5372 5371 5369
5394 5393 5391 5390 5389 5388 5387 5386 5385 5384 5383 5382 5381 5381 5380 5379 5376 5376 5375 5374 5373 5371 5369 5368 5368 5367 5366 5364 5363 5362 5362 5361 5360 5360 5359 5358 5357 5355 5354 5352 5350 5349 5347 5344
5383 5382 5380 5379 5377 5375 5374 5373 5371 5369 5368 5366 5365 5364 5362 5361 5361 5360 5358 5356 5354 5353 5351 5350 5349 5347 5345 5344 5343 5341 5341 5340 5339 5339 5338 5337 5336 5335 5334 5332 5331 5329 5327 5325
5367 5365 5363 5361 5360 5359 5357 5356 5354 5352 5351 5348 5346 5345 5343 5342 5341 5340 5338 5337 5335 5333 5332 5331 5328 5327 5325 5324 5323 5322 5321 5320 5320 5319 5319 5318 5319 5319 5319 5318 5317 5316 5315 5314
5355 5352 5350 5347 5345 5344 5342 5340 5339 5336 5334 5333 5331 5329 5328 5327 5325 5324 5323 5321 5319 5318 5317 5315 5313 5312 5311 5309 5308 5307 5307 5306 5306 5307 5307 5308 5309 5308 5308 5307 5306 5306 5304 5302
Wind_Speed
81 78 77 76 72 68 64 65 65 51 55 50 45 41 41 46 45 39 33 29 28 28 26 21 23 28 31 32 33 36 42 48 54 54 57 61 51 52 53 56 58 55 55 57
75 76 71 79 78 76 73 68 65 60 59 54 51 47 43 45 44 43 36 31 29 29 29 25 22 23 26 32 35 36 39 41 44 50 55 60 63 61 57 62 60 56 51 61
78 75 72 74 78 76 77 74 69 67 56 54 45 38 38 45 46 40 38 35 31 30 29 33 30 26 24 25 30 36 38 41 43 46 49 56 62 68 72 69 69 69 67 72
48 54 77 85 77 78 77 78 72 68 63 60 53 40 39 42 45 43 40 39 36 35 32 31 32 33 31 29 26 28 34 38 40 46 47 50 55 60 67 70 70 73 73 66
31 32 42 67 79 71 74 73 70 69 65 61 56 50 51 47 48 49 45 43 40 38 38 34 32 33 32 34 30 27 29 33 38 41 43 46 48 51 55 60 65 72 73 73
32 40 38 33 48 70 63 76 70 65 65 60 49 53 40 39 42 45 43 43 43 41 41 38 35 33 34 36 36 32 29 29 34 39 42 44 45 45 47 50 58 67 72 77
22 34 23 14 12 34 63 62 46 44 47 48 53 44 35 36 37 36 41 44 44 42 41 41 36 35 34 36 38 37 37 33 31 37 41 43 45 47 46 48 52 56 63 65
14 19 11 15 10 30 33 44 40 27 32 26 29 32 34 36 37 39 40 40 40 39 39 38 34 34 36 35 37 39 40 40 36 35 38 42 43 44 47 48 47 50 52 51
17 18 22 14 11 15 38 27 24 24 31 30 28 31 36 35 36 37 36 37 37 37 37 38 37 34 35 34 36 37 38 42 42 39 38 40 43 44 45 45 47 48 48 52
15 13 19 16 8 42 43 35 26 27 30 31 30 27 28 29 29 30 31 32 35 35 34 34 35 34 32 32 34 34 34 37 41 43 43 41 41 42 43 45 47 48 48 49
8 11 6 4 28 42 22 19 18 22 24 30 25 27 19 23 26 26 28 29 29 29 30 30 32 34 35 33 32 30 31 34 39 44 44 42 42 42 42 43 45 46 47 48
2 6 11 17 17 33 14 12 15 17 15 13 15 18 22 22 24 24 24 23 24 27 30 31 31 31 30 31 29 31 29 27 26 30 38 41 44 44 43 44 44 44 43 44
13 17 20 19 26 31 29 27 18 18 17 18 17 16 14 14 16 15 17 22 19 18 15 24 29 29 29 27 29 32 35 33 31 30 31 32 34 39 46 49 48 46 46 47
17 17 10 16 21 15 19 18 20 16 16 17 20 19 21 18 16 17 23 23 20 17 19 22 26 30 31 34 33 34 36 38 39 42 41 40 41 41 39 40 40 42 45 47
10 5 7 14 17 18 18 18 19 24 24 22 24 22 19 14 15 13 16 19 23 24 24 22 22 23 26 33 36 37 39 40 41 42 44 45 44 42 41 42 44 44 44 45
13 14 17 15 16 17 17 18 21 21 20 21 17 19 17 19 19 20 18 21 22 22 23 23 23 25 26 26 28 30 33 34 37 37 37 37 37 36 37 39 40 42 44 46
12 10 11 10 13 16 17 19 18 18 18 19 20 20 21 23 23 22 21 21 22 22 23 23 24 25 26 26 27 28 30 32 33 34 36 37 38 40 41 42 42 43 44 46
12 14 15 15 15 15 16 15 14 14 16 17 17 17 18 19 20 21 22 22 22 23 24 24 24 24 26 28 29 30 31 32 33 33 33 34 35 36 37 38 39 39 40 40
12 13 13 14 14 15 15 16 16 16 16 16 16 16 17 18 19 20 22 22 23 24 25 26 27 28 28 27 28 30 32 33 33 33 33 32 30 29 29 30 31 31 32 33
10 11 12 13 13 13 13 14 14 15 16 17 18 18 19 20 21 22 23 24 25 26 27 28 29 30 30 30 31 32 32 32 31 30 29 30 32 34 35 36 38 40 41 43
14 14 15 15 15 15 16 16 17 18 19 21 21 22 23 24 25 26 27 28 28 29 29 29 29 30 31 33 33 34 35 36 38 39 41 42 44 46 48 49 50 51 53 55
20 21 22 23 23 24 24 25 25 26 26 27 28 29 29 30 31 32 33 35 35 35 36 36 36 37 38 39 40 41 42 44 45 47 49 50 52 54 56 58 60 62 64 66
25 26 26 27 28 29 30 31 32 32 33 34 35 36 37 38 39 40 42 43 43 44 45 46 46 46 47 47 49 51 53 54 56 57 58 59 60 62 63 65 67 69 71 73
31 32 33 34 35 36 37 38 39 40 40 41 43 43 43 44 46 49 48 49 52 53 55 56 57 59 60 61 62 63 64 65 66 66 66 65 64 64 65 64 65 65 65 66
40 41 42 43 43 45 45 46 47 49 50 51 52 52 54 54 53 53 55 57 59 59 59 60 60 61 62 63 63 64 64 64 63 62 61 61 61 60 59 57 56 51 48 46
39 39 40 40 40 41 42 43 45 47 48 50 52 52 53 53 53 53 53 54 54 54 54 53 53 53 53 53 53 54 54 53 49 46 46 43 41 38 35 34 33 34 34 33
31 31 31 32 32 32 32 32 32 33 33 32 31 31 32 32 33 34 35 35 35 34 32 32 31 30 30 30 29 28 27 26 25 25 25 25 26 27 28 27 27 28 29 31
Wind_Direction
245 244 243 245 247 244 243 242 244 237 242 240 241 239 239 243 244 249 248 242 248 257 261 252 245 241 238 232 228 223 223 222 222 223 223 224 220 226 225 235 243 245 236 234
245 242 244 241 239 241 242 242 241 238 239 238 239 241 237 241 244 245 247 244 251 248 250 254 254 252 244 239 236 231 227 228 226 227 228 226 221 216 226 229 228 233 240 240
254 242 237 231 233 236 238 239 240 241 238 243 243 245 233 232 240 245 246 246 248 247 247 246 253 254 254 251 244 238 234 231 229 229 230 231 230 226 227 228 223 221 229 233
275 261 249 240 234 236 239 235 237 239 241 243 240 238 224 225 234 238 242 248 250 255 254 252 254 253 253 253 250 246 240 238 236 234 231 232 234 233 235 238 237 232 233 232
280 280 271 249 240 237 235 234 237 236 237 240 244 242 227 232 236 240 243 247 249 250 255 252 252 253 252 251 248 248 247 242 238 241 238 234 236 238 239 236 238 240 239 238
267 274 283 274 253 240 238 237 235 236 235 238 246 248 242 237 235 238 239 241 245 247 249 251 250 252 250 248 246 250 252 247 242 238 242 241 239 239 239 241 243 240 244 246
290 284 309 314 234 223 226 234 233 243 248 250 244 243 239 240 234 236 237 240 244 246 248 249 248 248 250 249 244 244 248 251 249 244 240 240 240 240 241 241 243 246 248 253
277 271 311 294 309 226 216 225 233 236 233 216 222 218 214 225 235 239 240 243 245 246 247 249 247 244 247 248 245 242 241 242 246 250 246 243 244 245 245 246 248 248 251 255
283 301 285 300 269 252 190 198 196 207 221 207 203 205 207 217 223 233 240 243 246 249 248 248 250 249 248 248 246 241 240 240 240 244 249 250 246 246 248 248 249 251 255 258
318 277 315 337 231 162 163 144 158 166 178 180 196 205 214 224 230 235 241 244 248 250 250 248 247 248 247 248 249 247 247 244 245 244 243 248 251 249 249 250 249 250 251 254
325 308 43 105 164 161 153 146 155 188 178 206 192 200 219 232 235 244 248 249 248 245 245 245 243 244 245 245 244 246 251 249 252 251 245 242 247 250 251 252 254 255 255 255
192 82 98 98 148 176 165 158 183 192 208 238 231 229 238 237 236 238 238 242 242 238 238 236 234 234 237 238 232 239 243 246 247 254 254 249 246 247 253 255 257 258 259 259
88 82 118 117 148 170 180 189 184 196 206 219 238 222 213 214 216 216 226 214 223 227 236 236 232 224 225 223 229 235 237 241 245 244 239 237 246 250 251 251 254 256 257 259
79 63 56 135 167 139 155 194 202 191 177 182 182 188 202 202 208 199 198 210 225 233 242 246 232 229 227 224 226 230 233 236 238 242 245 247 244 244 246 248 250 253 255 258
82 118 132 126 134 149 152 175 167 175 178 189 189 192 200 197 189 215 219 224 235 243 245 249 254 257 250 241 239 240 240 240 243 248 249 252 255 253 253 254 257 258 260 263
130 139 134 136 141 146 158 163 178 182 182 189 196 192 201 213 231 239 244 242 242 247 250 252 255 260 260 259 255 254 255 257 258 259 258 259 260 261 260 260 262 260 259 260
111 135 158 189 176 168 170 174 178 187 193 198 204 210 217 222 228 235 239 240 245 249 253 255 257 258 259 259 258 256 255 254 252 252 254 255 255 255 256 258 259 259 259 259
147 145 144 147 152 161 168 173 180 190 200 207 213 219 225 232 239 243 246 248 249 251 254 256 259 261 263 265 266 265 263 261 260 259 258 259 259 259 259 260 260 260 260 261
183 179 182 181 180 183 186 190 198 205 214 222 228 233 238 242 246 250 252 253 255 258 258 259 261 262 265 266 267 265 262 260 259 258 258 258 259 261 263 265 265 266 269 270
220 216 214 217 218 221 222 223 225 227 233 240 248 255 261 265 267 268 268 267 265 264 263 264 264 264 263 262 262 260 259 260 260 261 265 268 269 273 275 275 275 277 278 277
259 260 261 264 264 262 262 259 259 261 261 262 264 266 269 271 273 275 276 276 276 275 273 271 270 269 270 270 271 270 270 270 270 270 271 272 275 278 280 281 282 282 282 282
271 272 273 274 273 271 270 270 271 270 270 270 271 272 272 273 274 275 276 277 276 275 274 274 274 275 277 278 279 280 281 281 282 282 282 282 283 284 284 284 285 285 286 286
270 270 270 270 271 271 271 271 272 272 271 271 271 271 273 275 275 275 276 275 274 275 277 278 279 279 279 278 279 281 282 283 284 285 285 285 285 284 284 284 284 284 284 284
271 271 271 271 271 271 271 271 270 270 270 270 271 272 273 274 276 276 275 275 277 279 279 279 279 280 280 280 281 281 281 281 282 283 283 283 282 283 283 283 283 283 284 284
276 275 274 273 272 272 272 272 272 273 273 273 273 273 274 274 274 273 274 275 277 277 277 277 277 277 278 278 278 278 278 278 278 278 277 277 278 279 279 279 279 279 278 278
286 285 284 282 280 278 277 275 274 274 274 274 275 275 275 276 276 276 276 276 276 276 276 276 275 275 276 275 275 274 273 273 273 273 272 272 273 274 273 273 274 275 276 277
290 288 286 286 285 284 282 280 279 278 278 277 275 275 276 277 277 277 278 279 279 278 278 278 278 278 277 278 279 277 276 273 269 266 265 267 271 273 276 275 276 278 280 283